User: anonymous   Login
Location: Ostrava
(49.8330°N, 18.2830°E)
Time: 02:28:12
(UTC+02:00)
Language:

Vanguard 2 Rocket - Orbit

View from above orbital plane
View from above orbital plane
View from above satellite
View from above satellite

Ground track
Ground track

The orbit data is extracted from the following two-line orbital elements,

1 00012U 59001B   16212.52692893  .00000090  00000-0  39231-4 0  9995
2 00012  32.9001 271.0375 1666091 182.5146 176.6046 11.43984793360100
Epoch (UTC): 30 July 2016 12:38:46
Eccentricity: 0.1666091
inclination: 32.9001°
perigee height: 555 km
apogee height: 3328 km
right ascension of ascending node: 271.0375°
argument of perigee: 182.5146°
revolutions per day: 11.43984793
mean anomaly at epoch: 176.6046°
orbit number at epoch: 36010

The dashed part of the orbit path shows where the satellite is in the earth's shadow,  

DLR